Weather History for Roatan, Honduras

Change the Weather History Date:

Friday, January 10, 2014

  Actual Average Record
Temperature  
Mean Temperature 74 °F -  
Max Temperature 82 °F 81 °F 87 °F (2000)
Min Temperature 66 °F 72 °F 42 °F (2001)
Cooling Degree Days 9    
Growing Degree Days 24 (Base 50)    
Moisture  
Dew Point 71 °F    
Average Humidity 78    
Maximum Humidity 94    
Minimum Humidity 67    
Precipitation  
Precipitation 0.03 in - - ()
Sea Level Pressure  
Sea Level Pressure 29.96 in    
Wind  
Wind Speed 4 mph ()    
Max Wind Speed 12 mph    
Max Gust Speed -    
Visibility 6.6 miles    
Events      
Averages and records for this station are not official NWS values.
T = Trace of Precipitation, MM = Missing Value Source: Averaged Metar Reports

Daily Weather History Graph

Daily Weather History Graph

Search for Another Location

Airport:

Trip Planner

Search our weather history database for the weather conditions in past years. The results will help you decide how hot, cold, wet, or windy it might be!

Date:

Astronomy

Jan. 10, 2014 Rise Set
Actual Time 6:16 AM CST 5:30 PM CST
Civil Twilight 5:53 AM CST 5:53 PM CST
Nautical Twilight 5:27 AM CST 6:20 PM CST
Astronomical Twilight 5:00 AM CST 6:46 PM CST
Moon 1:22 PM CST (1/10) 1:37 AM CST (1/10)
Length of Visible Light 12h 00m
Length of Day
11h 13m
Waxing Gibbous, 75% of the Moon is Illuminated
Jan 10
Waxing Gibbous
Jan 15
Full
Jan 23
Last Quarter
Jan 30
New
Feb 6
First Quarter

Hourly Weather History & Observations

Time (CST) Temp. Heat Index Dew Point Humidity Pressure Visibility Wind Dir Wind Speed Gust Speed Precip Events Conditions
6:00 AM 71 °F - 68 °F 88% 29.99 in 6 mi North 2.3 mph - -   Haze
6:00 AM 71.6 °F - 68.0 °F 88% 29.98 in 6.2 mi North 2.3 mph - N/A   Mostly Cloudy
7:00 AM 71.6 °F - 69.8 °F 94% 30.01 in 6.2 mi North 2.3 mph - N/A   Mostly Cloudy
8:00 AM 75.2 °F - 71.6 °F 89% 30.01 in 6.2 mi West 2.3 mph - N/A   Scattered Clouds
9:00 AM 79 °F - 71 °F 69% 30.05 in 9 mi South 2.3 mph - -   Haze
9:00 AM 78.8 °F - 71.6 °F 78% 30.04 in 6.2 mi South 2.3 mph - N/A   Scattered Clouds
10:00 AM 80.6 °F 84.6 °F 71.6 °F 74% 30.04 in 6.2 mi SSW 5.8 mph - N/A   Scattered Clouds
11:00 AM 78.8 °F - 69.8 °F 74% 30.01 in 6.2 mi SW 5.8 mph - N/A   Scattered Clouds
12:00 PM 79 °F - 70 °F 68% 30.00 in 6 mi WNW 2.3 mph - -   Haze
12:00 PM 78.8 °F - 69.8 °F 74% 29.98 in 6.2 mi WNW 2.3 mph - N/A   Scattered Clouds
1:00 PM 80.6 °F 84.6 °F 71.6 °F 74% 29.95 in 6.2 mi NE 3.5 mph - N/A   Scattered Clouds
2:00 PM 80.6 °F 84.6 °F 71.6 °F 74% 29.92 in 6.2 mi North 8.1 mph - N/A   Scattered Clouds
3:00 PM 80 °F - 71 °F 67% 29.91 in 9 mi NNE 6.9 mph - -   Haze
3:00 PM 80.6 °F 84.6 °F 71.6 °F 74% 29.89 in 6.2 mi North 5.8 mph - N/A   Scattered Clouds
4:00 PM 82.4 °F 87.2 °F 71.6 °F 70% 29.89 in 6.2 mi ENE 8.1 mph - N/A   Scattered Clouds
5:00 PM 80.6 °F 84.6 °F 71.6 °F 74% 29.89 in 6.2 mi East 9.2 mph - N/A   Scattered Clouds
6:00 PM 74 °F - 71 °F 88% 29.91 in 9 mi ENE 4.6 mph - -   Haze
6:00 PM 75.2 °F - 71.6 °F 89% 29.89 in 6.2 mi ENE 5.8 mph - N/A   Scattered Clouds
7:00 PM 77.0 °F - 71.6 °F 83% 29.92 in 6.2 mi East 10.4 mph - N/A   Scattered Clouds
8:00 PM 78.8 °F - 71.6 °F 78% 29.95 in 6.2 mi East 11.5 mph - N/A   Scattered Clouds